Regional Weather Roundup
Issued by NWS

Home | Current Version | Previous Version | Graphics & Text | Print | Product List | Glossary On
Versions: 1 2 3 4 5 6 7 8 9 10 11 12 13 14 15 16 17 18 19 20 21 22 23 24 25 26 27 28 29 30 31 32 33 34 35 36 37 38 39 40 41 42 43 44 45 46 47 48 49 50
000
ASUS43 KLOT 270208
RWRIL

ILLINOIS REGIONAL WEATHER ROUNDUP
NATIONAL WEATHER SERVICE CHICAGO/ROMEOVILLE IL
900 PM CDT FRI AUG 26 2016

NOTE: "FAIR" INDICATES FEW OR NO CLOUDS BELOW 12,000 FEET WITH NO
SIGNIFICANT WEATHER AND/OR OBSTRUCTIONS TO VISIBILITY.

* THESE STATIONS ARE NOT UNDER NWS QUALITY CONTROL. THEY ALSO MAY NOT
  REPORT WEATHER SUCH AS PRECIPITATION OR FOG.

ILZ001-002-007-009-015-016-024-270300-
NORTHWEST ILLINOIS

CITY           SKY/WX    TMP DP  RH WIND       PRES   REMARKS
MOLINE         CLOUDY    74  63  68 E8        30.09R
STERLING*      CLOUDY    72  66  81 NE7       30.11S
SAVANNA*       CLOUDY    70  65  83 NE5       30.11S
$$

ILZ003-004-008-010-011-017-018-270300-
NORTH CENTRAL ILLINOIS

CITY           SKY/WX    TMP DP  RH WIND       PRES   REMARKS
ROCKFORD       MOCLDY    72  62  71 NE6       30.14R
FREEPORT*      CLOUDY    67  64  88 CALM      30.16R
ROCHELLE*      PTCLDY    69  65  85 NE7       30.13R
$$

ILZ005-006-012>014-019>023-270300-
NORTHEAST ILLINOIS

CITY           SKY/WX    TMP DP  RH WIND       PRES   REMARKS
CHICAGO-OHARE  MOCLDY    71  62  73 NE8       30.13R
CHICAGO-MIDWAY CLOUDY    74  64  71 E9        30.13R
AURORA         MOCLDY    73  63  70 E6        30.12S
LANSING*       CLOUDY    72  67  84 NE5       30.13S
JOLIET*        MOCLDY    74  67  78 NE9       30.11F
WAUKEGAN       CLOUDY    67  62  84 E5        30.15R
DUPAGE AIRPORT CLOUDY    72  60  66 E7        30.13R
KANKAKEE*      CLOUDY    72  69  88 E5        30.12F
WHEELING       PTCLDY    70  62  76 E3        30.15R
MORRIS*        CLOUDY    73  67  81 E6        30.09F
ROMEOVILLE*    CLOUDY    72  67  85 E8        30.12S
NORTHERLY ISL    N/A     72  64  76 NE9         N/A
$$

LMZ740>746-270300-
SOUTHERN LAKE MICHIGAN

STATION/POSITION SKY/WX   TEMP    WIND        PRES    VSBY  WAVE
                          AIR SEA DIR/SP/G                  HT/PER
                          (F)     (DEG/KT/KT) (MB)    (MI)  (FT/S)
SOUTHERN BUOY              71 75   60/ 10/ 12 1020.6R         1
WILMETTE HARBOR            72 71   80/ 10/ 12   N/A           2/ 3
HARRISON CRIB              73      60/ 13/ 14   N/A
BURNHAM HARBOR             72      40/  6/  9   N/A
CALUMET HARBOR             71      50/  6/  8   N/A
BURNS HARBOR               73      60/ 11/ 16 1020.7R
MICHIGAN CITY              73      30/ 14/ 15   N/A
MICHIGAN CITY 6N           73 75   60/ 12/ 16   N/A           2/ 3
ST. JOSEPH                 73 76   60/  8/ 10 1020.4R         2/ 3
$$

ILZ025>027-034>036-040-047-049-050-058-095>099-270300-
WEST-CENTRAL ILLINOIS

CITY           SKY/WX    TMP DP  RH WIND       PRES   REMARKS
QUINCY         CLOUDY    75  74  96 NE3       30.06S
GALESBURG*     CLOUDY    74  67  77 E6        30.08S
MACOMB*        CLOUDY    73  71  91 NE3       30.09S
JACKSONVILLE*  CLOUDY    75  70  85 SE3       30.06R
PITTSFIELD*    MOCLDY    77  74  93 CALM      30.07R
$$

ILZ028>032-037-038-041>044-048-051>054-059>061-270300-
CENTRAL ILLINOIS

CITY           SKY/WX    TMP DP  RH WIND       PRES   REMARKS
PONTIAC        RAIN      74  73  96 E6        30.11S
BLOOMINGTON    LGT RAIN  72  69  90 E5        30.10F
DECATUR        PTCLDY    72  69  90 NE5       30.08S
PEORIA         CLOUDY    76  72  87 E7        30.08S
LACON*         RAIN      74  68  81 E7        30.08R
LINCOLN*       CLOUDY    73  73  98 CALM      30.08R
SPRINGFIELD    PTCLDY    74  70  87 SE6       30.07R
TAYLORVILLE    CLOUDY    72  71  97 SE5       30.07S
$$

ILZ033-039-045-046-055>057-062-063-270300-
EAST-CENTRAL ILLINOIS

CITY           SKY/WX    TMP DP  RH WIND       PRES   REMARKS
CHAMPAIGN      LGT RAIN  72  70  93 E7        30.10F
RANTOUL*       CLOUDY    73  72  96 CALM      30.11S
MATTOON        CLOUDY    72  70  93 NE6       30.09R
PARIS*         CLOUDY    72  72 100 CALM      30.11F
$$

ILZ079-100>102-270300-
SOUTHWEST ILLINOIS

CITY           SKY/WX    TMP DP  RH WIND       PRES   REMARKS
ALTON          MOCLDY    73  70  88 VRB3      30.06R
BELLEVILLE     CLOUDY    76  72  88 SE3       30.04S
CAHOKIA*       CLOUDY    79  70  74 SE5       30.04S HX  82
SPARTA*        CLOUDY    78  73  84 S7        30.08R HX  80
$$

ILZ064>066-069>071-074>076-080>082-084>086-088>090-092>094-270300-
SOUTH-CENTRAL ILLINOIS

CITY           SKY/WX    TMP DP  RH WIND       PRES   REMARKS
CARBONDALE     LGT RAIN  74  69  85 S6        30.09R
CAIRO*         CLOUDY    73  73  99 CALM      30.08R
EFFINGHAM*     MOCLDY    73  73 100 CALM      30.09S FOG
MARION         LGT RAIN  79  75  89 SW3       30.09R HX  82
MT. VERNON     CLOUDY    77  70  78 SE3       30.08S
CENTRALIA*     CLOUDY    77  76  95 SE5       30.06S
SALEM*         CLOUDY    78  74  88 CALM      30.07F
METROPOLIS*    CLOUDY    75  73  93 CALM      30.09R
$$

ILZ067-068-072-073-078-083-087-091-270300-
SOUTHEAST ILLINOIS

CITY           SKY/WX    TMP DP  RH WIND       PRES   REMARKS
LAWRENCEVILLE  CLOUDY    77  74  90 E6        30.08S
FLORA*         CLOUDY    78  74  87 N5        30.08S HX  80
FAIRFIELD*     CLOUDY    75  73  94 CALM      30.07R
HARRISBURG*    MOCLDY    76  75  95 SW10      30.09R
ROBINSON*      CLOUDY    74  72  93 CALM      30.10S
CARMI*         CLOUDY    75  74  98 CALM      30.07R
$$

ABBREVIATIONS USED IN REMARKS
   TC - TEMPERATURE IN CELSIUS
  WCI - WIND CHILL INDEX
   HX - HEAT INDEX
  VSB - VISIBILITY
$$





USA.gov is the U.S. government's official web portal to all federal, state and local government web resources and services.